| time (UTC) | temp C | wind direction | speed KPH | gust KPH | rain 1hr cm | rain 24hr cm | rain mn cm | humidity % | barometer mb |
| 20260902231600 | 33 | 217 | 6.4 | 12.9 | 0.00 | 0.00 | 0.00 | 60 | 1016.0 |
| 20260902230105 | 33 | 243 | 8.0 | 12.9 | 0.00 | 0.00 | 0.00 | 60 | 1016.1 |
| 20260902224618 | 33 | 226 | 6.4 | 11.3 | 0.00 | 0.00 | 0.00 | 59 | 1016.3 |
| 20260902223058 | 33 | 229 | 11.3 | 17.7 | 0.00 | 0.00 | 0.00 | 58 | 1016.2 |
| 20260902221605 | 33 | 221 | 8.0 | 17.7 | 0.00 | 0.00 | 0.00 | 59 | 1016.3 |
| 20260902220116 | 33 | 233 | 4.8 | 17.7 | 0.00 | 0.00 | 0.00 | 59 | 1016.4 |
| 20260902214559 | 33 | 228 | 9.7 | 20.9 | 0.00 | 0.00 | 0.00 | 59 | 1016.3 |
| 20260902213106 | 33 | 249 | 8.0 | 17.7 | 0.00 | 0.00 | 0.00 | 59 | 1016.3 |
| 20260902211603 | 33 | 222 | 6.4 | 17.7 | 0.00 | 0.00 | 0.00 | 59 | 1016.4 |
| 20260902210109 | 33 | 198 | 9.7 | 19.3 | 0.00 | 0.00 | 0.00 | 60 | 1016.4 |
| 20260902204605 | 33 | 214 | 11.3 | 20.9 | 0.00 | 0.00 | 0.00 | 59 | 1016.5 |
| 20260902203118 | 33 | 236 | 11.3 | 22.5 | 0.00 | 0.00 | 0.00 | 59 | 1016.6 |
| 20260902201604 | 33 | 167 | 9.7 | 20.9 | 0.00 | 0.00 | 0.00 | 61 | 1016.6 |
| 20260902200106 | 33 | 196 | 9.7 | 19.3 | 0.00 | 0.00 | 0.00 | 60 | 1016.7 |
| 20260902194605 | 33 | 255 | 8.0 | 22.5 | 0.00 | 0.00 | 0.00 | 58 | 1016.9 |
| 20260902193107 | 33 | 267 | 8.0 | 19.3 | 0.00 | 0.00 | 0.00 | 59 | 1017.0 |
| 20260902191606 | 33 | 197 | 9.7 | 25.7 | 0.00 | 0.00 | 0.00 | 61 | 1017.1 |
| 20260902190112 | 32 | 177 | 8.0 | 16.1 | 0.00 | 0.00 | 0.00 | 61 | 1017.2 |
| 20260902184602 | 32 | 278 | 12.9 | 22.5 | 0.00 | 0.00 | 0.00 | 61 | 1017.4 |
| 20260902183107 | 32 | 155 | 4.8 | 19.3 | 0.00 | 0.00 | 0.00 | 61 | 1017.3 |
| 20260902181605 | 32 | 211 | 4.8 | 19.3 | 0.00 | 0.00 | 0.00 | 62 | 1017.6 |
| 20260902174610 | 32 | 165 | 9.7 | 22.5 | 0.00 | 0.00 | 0.00 | 62 | 1017.8 |
| 20260902173103 | 32 | 188 | 11.3 | 22.5 | 0.00 | 0.00 | 0.00 | 64 | 1017.9 |
| 20260902171606 | 32 | 161 | 4.8 | 19.3 | 0.00 | 0.00 | 0.00 | 66 | 1018.0 |
| 20260902170106 | 31 | 191 | 11.3 | 17.7 | 0.00 | 0.00 | 0.00 | 66 | 1018.3 |
| 20260902164610 | 31 | 178 | 6.4 | 14.5 | 0.00 | 0.00 | 0.00 | 67 | 1018.3 |
| 20260902163113 | 31 | 235 | 4.8 | 17.7 | 0.00 | 0.00 | 0.00 | 67 | 1018.4 |
| 20260902161601 | 31 | 188 | 9.7 | 17.7 | 0.00 | 0.00 | 0.00 | 66 | 1018.5 |
| 20260902160121 | 31 | 244 | 9.7 | 14.5 | 0.00 | 0.00 | 0.00 | 69 | 1018.6 |
| 20260902154605 | 30 | 245 | 8.0 | 12.9 | 0.00 | 0.00 | 0.00 | 73 | 1018.7 |
| 20260902153108 | 30 | 177 | 3.2 | 8.0 | 0.00 | 0.00 | 0.00 | 76 | 1018.8 |
| 20260902151609 | 29 | 0 | 4.8 | 8.0 | 0.00 | 0.00 | 0.00 | 76 | 1018.7 |
| 20260902150104 | 28 | 248 | 4.8 | 12.9 | 0.00 | 0.00 | 0.00 | 77 | 1018.8 |
| 20260902144600 | 28 | 223 | 4.8 | 8.0 | 0.00 | 0.00 | 0.00 | 80 | 1018.8 |
| 20260902143109 | 27 | 244 | 3.2 | 9.7 | 0.00 | 0.00 | 0.00 | 81 | 1018.9 |
| 20260902141600 | 26 | 244 | 3.2 | 6.4 | 0.00 | 0.00 | 0.00 | 82 | 1018.8 |
| 20260902140106 | 26 | 239 | 3.2 | 6.4 | 0.00 | 0.00 | 0.00 | 84 | 1018.7 |
| 20260902134611 | 25 | 238 | 3.2 | 8.0 | 0.00 | 0.00 | 0.00 | 85 | 1018.8 |
| 20260902133108 | 25 | 252 | 4.8 | 9.7 | 0.00 | 0.00 | 0.00 | 85 | 1018.9 |
| 20260902131607 | 25 | 0 | 1.6 | 4.8 | 0.00 | 0.00 | 0.00 | 87 | 1018.8 |
| 20260902130104 | 24 | 225 | 0.0 | 6.4 | 0.00 | 0.00 | 0.00 | 89 | 1018.7 |
| 20260902124603 | 23 | 225 | 1.6 | 6.4 | 0.00 | 0.00 | 0.00 | 90 | 1018.8 |
| 20260902123104 | 23 | 203 | 1.6 | 6.4 | 0.00 | 0.00 | 0.00 | 92 | 1018.5 |
| 20260902121602 | 22 | 198 | 3.2 | 8.0 | 0.00 | 0.00 | 0.00 | 93 | 1018.4 |
| 20260902120104 | 22 | 179 | 4.8 | 9.7 | 0.00 | 0.00 | 0.00 | 94 | 1018.3 |
| 20260902114603 | 22 | 202 | 4.8 | 8.0 | 0.00 | 0.00 | 0.00 | 92 | 1018.1 |
| 20260902113106 | 23 | 211 | 4.8 | 6.4 | 0.00 | 0.00 | 0.00 | 91 | 1018.0 |
| 20260902111602 | 23 | 211 | 4.8 | 6.4 | 0.00 | 0.00 | 0.00 | 91 | 1017.8 |
| 20260902110104 | 23 | 211 | 4.8 | 6.4 | 0.00 | 0.00 | 0.00 | 89 | 1017.8 |
| 20260902104624 | 23 | 211 | 3.2 | 6.4 | 0.00 | 0.00 | 0.00 | 88 | 1017.7 |
| 20260902103104 | 23 | 211 | 4.8 | 6.4 | 0.00 | 0.00 | 0.00 | 88 | 1017.7 |
| 20260902101606 | 23 | 211 | 3.2 | 6.4 | 0.00 | 0.00 | 0.00 | 87 | 1017.8 |
| 20260902100128 | 24 | 211 | 4.8 | 8.0 | 0.00 | 0.00 | 0.00 | 85 | 1017.7 |
| 20260902094606 | 24 | 211 | 4.8 | 6.4 | 0.00 | 0.00 | 0.00 | 86 | 1017.5 |
| 20260902093125 | 24 | 211 | 3.2 | 6.4 | 0.00 | 0.00 | 0.00 | 86 | 1017.4 |
| 20260902091624 | 23 | 211 | 4.8 | 8.0 | 0.00 | 0.00 | 0.00 | 86 | 1017.4 |
| 20260902090106 | 23 | 211 | 3.2 | 6.4 | 0.00 | 0.00 | 0.00 | 90 | 1017.4 |
| 20260902084608 | 23 | 204 | 3.2 | 4.8 | 0.00 | 0.00 | 0.00 | 90 | 1017.2 |
| 20260902083111 | 24 | 204 | 3.2 | 6.4 | 0.00 | 0.00 | 0.00 | 88 | 1017.1 |
| 20260902081619 | 24 | 204 | 6.4 | 8.0 | 0.00 | 0.00 | 0.00 | 85 | 1016.9 |
| 20260902080107 | 24 | 203 | 4.8 | 8.0 | 0.00 | 0.00 | 0.00 | 85 | 1016.8 |
| 20260902074606 | 24 | 202 | 4.8 | 6.4 | 0.00 | 0.00 | 0.00 | 87 | 1016.7 |
| 20260902073107 | 24 | 202 | 4.8 | 8.0 | 0.00 | 0.00 | 0.00 | 87 | 1016.8 |
| 20260902071632 | 25 | 200 | 3.2 | 8.0 | 0.00 | 0.00 | 0.00 | 86 | 1016.8 |
| 20260902070104 | 25 | 188 | 4.8 | 9.7 | 0.00 | 0.00 | 0.00 | 86 | 1016.9 |
| 20260902064612 | 25 | 182 | 4.8 | 8.0 | 0.00 | 0.00 | 0.00 | 86 | 1016.8 |
| 20260902063133 | 24 | 182 | 6.4 | 8.0 | 0.00 | 0.00 | 0.00 | 91 | 1016.8 |
| 20260902061605 | 23 | 182 | 4.8 | 8.0 | 0.00 | 0.00 | 0.00 | 93 | 1016.9 |
| 20260902060137 | 24 | 175 | 4.8 | 6.4 | 0.00 | 0.00 | 0.00 | 90 | 1017.0 |
| 20260902054603 | 25 | 202 | 3.2 | 6.4 | 0.00 | 0.00 | 0.00 | 88 | 1017.0 |
| 20260902053105 | 25 | 202 | 4.8 | 8.0 | 0.00 | 0.00 | 0.00 | 85 | 1017.0 |
| 20260902051613 | 25 | 197 | 4.8 | 8.0 | 0.00 | 0.00 | 0.00 | 85 | 1016.8 |
| 20260902050108 | 25 | 197 | 4.8 | 8.0 | 0.00 | 0.00 | 0.00 | 85 | 1016.9 |
| 20260902044601 | 26 | 195 | 6.4 | 9.7 | 0.00 | 0.00 | 0.00 | 85 | 1016.9 |
| 20260902043109 | 26 | 190 | 4.8 | 8.0 | 0.00 | 0.00 | 0.00 | 85 | 1016.8 |
| 20260902041604 | 26 | 204 | 4.8 | 8.0 | 0.00 | 0.00 | 0.00 | 83 | 1016.9 |
| 20260902040107 | 26 | 203 | 4.8 | 8.0 | 0.00 | 0.00 | 0.00 | 84 | 1016.9 |
| 20260902034601 | 26 | 195 | 6.4 | 9.7 | 0.00 | 0.00 | 0.00 | 83 | 1017.0 |
| 20260902033117 | 26 | 203 | 6.4 | 9.7 | 0.00 | 0.00 | 0.00 | 83 | 1016.9 |
| 20260902031606 | 26 | 206 | 4.8 | 9.7 | 0.00 | 0.00 | 0.00 | 82 | 1016.8 |
| 20260902024618 | 27 | 202 | 1.6 | 8.0 | 0.00 | 0.00 | 0.00 | 78 | 1016.9 |
| 20260902023100 | 28 | 202 | 3.2 | 8.0 | 0.00 | 0.00 | 0.00 | 75 | 1016.9 |
| 20260902021602 | 28 | 179 | 4.8 | 8.0 | 0.00 | 0.00 | 0.00 | 77 | 1017.0 |
| 20260902020139 | 28 | 178 | 6.4 | 9.7 | 0.00 | 0.00 | 0.00 | 74 | 1016.9 |
| 20260902014603 | 29 | 178 | 6.4 | 11.3 | 0.00 | 0.00 | 0.00 | 72 | 1016.9 |
| 20260902013120 | 30 | 176 | 4.8 | 8.0 | 0.00 | 0.00 | 0.00 | 70 | 1017.0 |
| 20260902011602 | 30 | 176 | 4.8 | 8.0 | 0.00 | 0.00 | 0.00 | 69 | 1016.7 |
| 20260902010104 | 30 | 205 | 3.2 | 6.4 | 0.00 | 0.00 | 0.00 | 66 | 1016.4 |
| 20260902004606 | 31 | 205 | 4.8 | 6.4 | 0.00 | 0.00 | 0.00 | 65 | 1016.4 |
| 20260902003105 | 31 | 205 | 4.8 | 6.4 | 0.00 | 0.00 | 0.00 | 65 | 1016.5 |
| 20260902001619 | 31 | 205 | 4.8 | 9.7 | 0.00 | 0.00 | 0.00 | 64 | 1016.5 |
| 20260902000105 | 31 | 200 | 8.0 | 11.3 | 0.00 | 0.00 | 0.00 | 64 | 1016.5 |
| 20260901234613 | 31 | 213 | 6.4 | 11.3 | 0.00 | 0.00 | 0.00 | 63 | 1016.5 |
| 20260901233107 | 32 | 194 | 6.4 | 11.3 | 0.00 | 0.00 | 0.00 | 62 | 1016.7 |